Simultaneous Nadir Overpasses (SNOs) Predictions

Prediction of SNOs between LANDSAT-8 and NOAA-19 Satellite Orbit:

Table of predicted SNOs for the next 14.0 days since TLE Epoch: 2/18/2023
Index Date (LANDSAT-8) Time (LANDSAT-8) Lat,Lon (LANDSAT-8) SZA (LANDSAT-8 ) Date (NOAA-19) Time (NOAA-19) Lat,Lon (NOAA-19) SZA (NOAA-19 ) Distance(km) Time Diff (sec)
1 02/20/2023 07:19:22 -80.93, -72.89 86.66 02/20/2023 07:18:13 -80.93, -72.83 86.68 1.38 69
2 02/20/2023 08:08:49 80.91, 94.47 93.29 02/20/2023 08:09:17 80.93, 94.52 93.32 1.77 28
3 02/22/2023 13:42:30 -80.91,-168.94 87.51 02/22/2023 13:41:53 -80.93,-168.83 87.50 2.36 37
4 02/22/2023 14:31:56 80.92, -1.25 92.49 02/22/2023 14:32:57 80.93, -1.40 92.51 2.80 61
5 02/24/2023 20:05:36 -80.93, 95.52 88.30 02/24/2023 20:05:32 -80.93, 95.47 88.31 1.20 4
6 02/27/2023 01:39:15 80.94,-167.80 90.90 02/27/2023 01:38:17 80.93,-167.78 90.87 1.40 58
7 02/27/2023 02:28:42 -80.94, -0.20 89.12 02/27/2023 02:29:11 -80.93, -0.31 89.13 2.10 29
8 03/01/2023 08:02:21 80.93, 96.27 90.03 03/01/2023 08:01:56 80.93, 96.40 90.04 2.41 25
9 03/01/2023 08:51:48 -80.93, -96.12 89.99 03/01/2023 08:52:50 -80.93, -96.15 89.97 0.51 62



Historial Predications of SNOs between LANDSAT-8 and NOAA-19
